User: anonymous   Login
Location: Unspecified
(0.0000°N, 0.0000°E)
Time: 23:51:26
(UTC+00:00)
Language:

STARLINK-3085 - Orbit

View from above orbital plane
View from above orbital plane
View from above satellite
View from above satellite

Ground track
Ground track

The orbit is defined by the following mean orbital elements,

1 49156U          26145.18286770 +.00000000 +00000-0 +56095-4 0 00004
2 49156  70.0005  61.5831 0002938 267.5969  92.4853 14.98330871    04
Epoch (UTC): 25 May 2026 04:23:19
Eccentricity: 0.0002938
inclination: 70.0005°
perigee height: 570 km
apogee height: 574 km
right ascension of ascending node: 61.5831°
argument of perigee: 267.5969°
revolutions per day: 14.98330871
mean anomaly at epoch: 92.4853°

The dashed part of the orbit path shows where the satellite is in the earth's shadow,  

DLR